Weather History for KJKA - January, 2013

Change the Weather History Date:

Wednesday, January 30, 2013

  Actual Average (KPNS) Record (KPNS)
Temperature  
Mean Temperature 60 °F 52 °F  
Max Temperature 73 °F 61 °F 78 °F (1950)
Min Temperature 44 °F 43 °F 11 °F (1966)
Degree Days  
Heating Degree Days 6 13  
Month to date heating degree days 415  
Since 1 July heating degree days 997  
Cooling Degree Days 0 0  
Month to date cooling degree days 0  
Year to date cooling degree days 0  
Growing Degree Days 10 (Base 50)    
Moisture  
Dew Point 54 °F    
Average Humidity 78    
Maximum Humidity 94    
Minimum Humidity 44    
Precipitation  
Precipitation 0.07 in 0.16 in 2.63 in (1991)
Month to date precipitation 4.46  
Year to date precipitation 4.46  
Snow  
Snow 0.00 in 0.00 in - ()
Month to date snowfall 0.0  
Since 1 July snowfall 0.0  
Snow Depth -    
Sea Level Pressure  
Sea Level Pressure 29.86 in    
Wind  
Wind Speed 15 mph (SW)    
Max Wind Speed 25 mph    
Max Gust Speed 37 mph    
Visibility 7 miles    
Events Rain    
T = Trace of Precipitation, MM = Missing Value Source: NWS Daily Summary

Daily Weather History Graph

Daily Weather History Graph

Search for Another Location

Airport or City:

Trip Planner

Search our weather history database for the weather conditions in past years. The results will help you decide how hot, cold, wet, or windy it might be!

Date:

Astronomy

Jan. 30, 2013 Rise Set
Actual Time 6:42 AM CST 5:26 PM CST
Civil Twilight 6:17 AM CST 5:51 PM CST
Nautical Twilight 5:48 AM CST 6:20 PM CST
Astronomical Twilight 5:20 AM CST 6:48 PM CST
Moon 9:02 PM CST (1/30) 8:29 AM CST (1/30)
Length of Visible Light 11h 34m
Length of Day
10h 43m
Waning Gibbous, 87% of the Moon is Illuminated
Jan 30
Waning Gibbous
Feb 3
Last Quarter
Feb 10
New
Feb 17
First Quarter
Feb 25
Full

Hourly Weather History & Observations

Time (CST) Temp. Windchill Dew Point Humidity Pressure Visibility Wind Dir Wind Speed Gust Speed Precip Events Conditions
12:35 AM 69.8 °F - 68.0 °F 94% 29.89 in 4.0 mi SSE 12.7 mph 20.7 mph N/A   Overcast
12:55 AM 69.8 °F - 68.0 °F 94% 29.89 in 3.0 mi SSE 13.8 mph 21.9 mph N/A   Overcast
1:15 AM 69.8 °F - 68.0 °F 94% 29.90 in 2.5 mi SSE 10.4 mph 19.6 mph N/A   Overcast
1:35 AM 69.8 °F - 66.2 °F 88% 29.89 in 2.5 mi SSE 11.5 mph 17.3 mph N/A   Overcast
1:55 AM 69.8 °F - 66.2 °F 88% 29.87 in 1.8 mi SSE 10.4 mph 18.4 mph N/A   Overcast
2:15 AM 69.8 °F - 68.0 °F 94% 29.87 in 2.0 mi SSE 12.7 mph 16.1 mph N/A   Overcast
2:55 AM 69.8 °F - 68.0 °F 94% 29.85 in 4.0 mi SSE 15.0 mph 20.7 mph N/A   Overcast
3:15 AM 69.8 °F - 66.2 °F 88% 29.85 in 4.0 mi SSE 11.5 mph 20.7 mph N/A   Overcast
3:35 AM 69.8 °F - 68.0 °F 94% 29.84 in 5.0 mi SSE 12.7 mph 20.7 mph N/A   Overcast
3:55 AM 69.8 °F - 68.0 °F 94% 29.81 in 4.0 mi SSE 15.0 mph 23.0 mph N/A   Overcast
4:15 AM 69.8 °F - 68.0 °F 94% 29.80 in 4.0 mi SSE 15.0 mph 25.3 mph N/A   Overcast
4:35 AM 69.8 °F - 68.0 °F 94% 29.79 in 5.0 mi SSE 15.0 mph 23.0 mph N/A   Overcast
4:55 AM 69.8 °F - 66.2 °F 88% 29.79 in 5.0 mi SSE 13.8 mph 25.3 mph N/A   Overcast
5:15 AM 69.8 °F - 66.2 °F 88% 29.79 in 5.0 mi SSE 11.5 mph 21.9 mph N/A   Overcast
6:15 AM 69.8 °F - 66.2 °F 88% 29.79 in 5.0 mi SSE 15.0 mph 24.2 mph N/A   Overcast
6:35 AM 69.8 °F - 66.2 °F 88% 29.79 in 5.0 mi SSE 15.0 mph 21.9 mph N/A   Overcast
6:55 AM 69.8 °F - 66.2 °F 88% 29.77 in 4.0 mi SSE 17.3 mph 23.0 mph N/A   Overcast
7:15 AM 69.8 °F - 66.2 °F 88% 29.78 in 4.0 mi SSE 18.4 mph 24.2 mph N/A   Overcast
7:35 AM 69.8 °F - 66.2 °F 88% 29.79 in 4.0 mi SSE 13.8 mph 23.0 mph N/A   Overcast
7:55 AM 69.8 °F - 66.2 °F 88% 29.77 in 4.0 mi SSE 13.8 mph 24.2 mph N/A   Overcast
8:15 AM 71.6 °F - 66.2 °F 83% 29.78 in 4.0 mi South 17.3 mph 24.2 mph N/A   Haze
8:35 AM 71.6 °F - 66.2 °F 83% 29.78 in 4.0 mi South 15.0 mph 20.7 mph N/A   Haze
8:55 AM 71.6 °F - 66.2 °F 83% 29.78 in 5.0 mi South 13.8 mph 21.9 mph N/A   Haze
9:15 AM 71.6 °F - 66.2 °F 83% 29.79 in 5.0 mi South 15.0 mph 20.7 mph N/A   Haze
9:35 AM 71.6 °F - 68.0 °F 88% 29.79 in 5.0 mi South 15.0 mph 23.0 mph N/A   Overcast
9:55 AM 71.6 °F - 68.0 °F 88% 29.79 in 5.0 mi South 18.4 mph 25.3 mph N/A   Haze
10:15 AM 71.6 °F - 68.0 °F 88% 29.79 in 5.0 mi South 19.6 mph 27.6 mph N/A   Haze
10:35 AM 71.6 °F - 66.2 °F 83% 29.79 in 5.0 mi SSW 18.4 mph 26.5 mph N/A   Haze
10:55 AM 71.6 °F - 68.0 °F 88% 29.77 in 5.0 mi South 19.6 mph 26.5 mph N/A   Haze
11:15 AM 73.4 °F - 68.0 °F 83% 29.77 in 5.0 mi South 17.3 mph 28.8 mph N/A   Haze
11:35 AM 73.4 °F - 68.0 °F 83% 29.76 in 7.0 mi South 19.6 mph 29.9 mph N/A   Scattered Clouds
11:55 AM 73.4 °F - 68.0 °F 83% 29.74 in 5.0 mi South 18.4 mph 36.8 mph N/A   Haze
12:15 PM 73.4 °F - 68.0 °F 83% 29.72 in 7.0 mi South 21.9 mph 36.8 mph N/A   Scattered Clouds
12:35 PM 73.4 °F - 66.2 °F 78% 29.70 in 5.0 mi South 25.3 mph 34.5 mph N/A   Haze
12:55 PM 60.8 °F - 59.0 °F 94% 29.74 in 2.0 mi West 20.7 mph 31.1 mph 0.04 in Rain Light Rain
1:15 PM 60.8 °F - 59.0 °F 94% 29.74 in 5.0 mi West 18.4 mph 23.0 mph N/A Rain Light Rain
1:35 PM 59.0 °F - 55.4 °F 88% 29.76 in 10.0 mi West 23.0 mph 32.2 mph 0.01 in Rain Rain
1:55 PM 55.4 °F - 51.8 °F 88% 29.79 in 5.0 mi West 18.4 mph 25.3 mph 0.01 in Rain Light Rain
2:15 PM 51.8 °F - 50.0 °F 94% 29.80 in 10.0 mi WNW 15.0 mph 25.3 mph N/A Rain Light Rain
2:35 PM 51.8 °F - 50.0 °F 94% 29.82 in 10.0 mi West 10.4 mph - N/A Rain Rain
2:55 PM 51.8 °F - 50.0 °F 94% 29.82 in 10.0 mi West 13.8 mph 19.6 mph 0.01 in   Overcast
3:15 PM 50.0 °F - 48.2 °F 94% 29.82 in 10.0 mi West 11.5 mph 18.4 mph N/A Rain Light Rain
3:35 PM 50.0 °F - 48.2 °F 94% 29.82 in 7.0 mi West 9.2 mph - N/A Rain Light Rain
3:55 PM 50.0 °F - 48.2 °F 94% 29.82 in 7.0 mi West 8.1 mph - N/A Rain Rain
4:15 PM 50.0 °F - 48.2 °F 94% 29.83 in 7.0 mi SW 8.1 mph - N/A Rain Heavy Rain
4:35 PM 51.8 °F - 50.0 °F 94% 29.84 in 10.0 mi SW 6.9 mph - N/A   Overcast
4:55 PM 55.4 °F - 50.0 °F 82% 29.84 in 10.0 mi West 11.5 mph - N/A Rain Light Rain
5:15 PM 55.4 °F - 46.4 °F 72% 29.84 in 10.0 mi West 15.0 mph 21.9 mph N/A Rain Light Rain
5:35 PM 57.2 °F - 42.8 °F 59% 29.84 in 10.0 mi West 18.4 mph 29.9 mph 0.01 in   Overcast
5:55 PM 57.2 °F - 41.0 °F 55% 29.86 in 10.0 mi West 15.0 mph 24.2 mph 0.01 in   Overcast
6:15 PM 57.2 °F - 41.0 °F 55% 29.88 in 10.0 mi West 20.7 mph 29.9 mph N/A   Overcast
6:35 PM 55.4 °F - 39.2 °F 54% 29.90 in 10.0 mi West 17.3 mph 26.5 mph N/A   Overcast
6:55 PM 57.2 °F - 35.6 °F 44% 29.92 in 10.0 mi West 19.6 mph 27.6 mph N/A   Overcast
7:15 PM 55.4 °F - 35.6 °F 47% 29.93 in 10.0 mi West 16.1 mph 26.5 mph N/A   Mostly Cloudy
7:35 PM 55.4 °F - 35.6 °F 47% 29.93 in 10.0 mi West 16.1 mph 27.6 mph N/A   Clear
7:55 PM 55.4 °F - 35.6 °F 47% 29.96 in 10.0 mi WNW 15.0 mph 24.2 mph N/A   Clear
8:15 PM 53.6 °F - 35.6 °F 51% 29.97 in 10.0 mi WNW 16.1 mph 20.7 mph N/A   Clear
8:35 PM 53.6 °F - 35.6 °F 51% 29.99 in 10.0 mi WNW 21.9 mph 31.1 mph N/A   Clear
8:55 PM 53.6 °F - 33.8 °F 47% 30.00 in 10.0 mi WNW 17.3 mph 28.8 mph N/A   Clear
9:15 PM 51.8 °F - 35.6 °F 54% 30.02 in 10.0 mi WNW 13.8 mph 23.0 mph N/A   Clear
9:35 PM 51.8 °F - 35.6 °F 54% 30.03 in 10.0 mi WNW 15.0 mph 24.2 mph N/A   Clear
9:55 PM 51.8 °F - 35.6 °F 54% 30.05 in 10.0 mi NW 12.7 mph 19.6 mph N/A   Scattered Clouds
10:15 PM 50.0 °F - 33.8 °F 54% 30.07 in 10.0 mi NW 13.8 mph 21.9 mph N/A   Scattered Clouds
10:35 PM 50.0 °F - 32.0 °F 50% 30.08 in 10.0 mi WNW 15.0 mph 23.0 mph N/A   Clear
10:55 PM 48.2 °F - 32.0 °F 54% 30.10 in 10.0 mi WNW 13.8 mph 26.5 mph N/A   Clear
11:15 PM 46.4 °F 39.5 °F 30.2 °F 53% 30.11 in 10.0 mi WNW 17.3 mph 26.5 mph N/A   Clear
11:35 PM 46.4 °F 40.4 °F 28.4 °F 50% 30.12 in 10.0 mi NW 13.8 mph 19.6 mph N/A   Clear
11:55 PM 44.6 °F 39.2 °F 30.2 °F 57% 30.13 in 10.0 mi NW 10.4 mph 17.3 mph N/A   Clear